TimeCST,TemperatureF,Dew PointF,Humidity,Sea Level PressureIn,VisibilityMPH,Wind Direction,Wind SpeedMPH,Gust SpeedMPH,PrecipitationIn,Events,Conditions,WindDirDegrees,DateUTC
12:00 AM,73,73,99,30.08,4,Calm,Calm,,,Rain,Light Rain,,2012-11-30 06:00:00
3:00 AM,72,71,97,30.04,7,Calm,Calm,,,Rain,Light Rain,,2012-11-30 09:00:00
5:00 AM,71.6,71.6,100,30.04,6.2,Calm,Calm,-,N/A,,Mostly Cloudy,0,2012-11-30 11:00:00
6:00 AM,71,71,99,30.05,12,Calm,Calm,,,,Partly Cloudy,,2012-11-30 12:00:00
6:00 AM,71.6,71.6,100,30.04,6.2,Calm,Calm,-,N/A,,Mostly Cloudy,0,2012-11-30 12:00:00
7:00 AM,71.6,71.6,100,30.06,6.2,Calm,Calm,-,N/A,,Mostly Cloudy,0,2012-11-30 13:00:00
8:00 AM,73.4,71.6,94,30.06,6.2,WNW,3.5,-,N/A,,Mostly Cloudy,300,2012-11-30 14:00:00
9:00 AM,75,73,91,30.11,12,WNW,4.6,,,,Mostly Cloudy,290,2012-11-30 15:00:00
9:00 AM,75.2,73.4,94,30.10,6.2,WNW,4.6,-,N/A,,Mostly Cloudy,290,2012-11-30 15:00:00
10:00 AM,77.0,73.4,89,30.09,6.2,WNW,5.8,-,N/A,,Mostly Cloudy,300,2012-11-30 16:00:00
11:00 AM,80.6,73.4,79,30.07,6.2,North,4.6,-,N/A,,Mostly Cloudy,360,2012-11-30 17:00:00
12:00 PM,80,73,73,30.05,12,North,4.6,,,,Mostly Cloudy,350,2012-11-30 18:00:00
12:00 PM,80.6,73.4,79,30.04,6.2,North,4.6,-,N/A,,Mostly Cloudy,350,2012-11-30 18:00:00
1:00 PM,80.6,75.2,84,30.01,6.2,NW,4.6,-,N/A,,Mostly Cloudy,320,2012-11-30 19:00:00
2:00 PM,80.6,71.6,74,30.00,6.2,ENE,9.2,-,N/A,,Mostly Cloudy,60,2012-11-30 20:00:00
3:00 PM,82,73,67,30.00,12,NNE,9.2,,,,Mostly Cloudy,30,2012-11-30 21:00:00
3:00 PM,82.4,73.4,74,29.99,6.2,NNE,9.2,-,N/A,,Mostly Cloudy,30,2012-11-30 21:00:00
4:00 PM,78.8,73.4,83,29.99,6.2,East,5.8,-,N/A,,Mostly Cloudy,100,2012-11-30 22:00:00
5:00 PM,77.0,73.4,89,30.00,6.2,East,5.8,-,N/A,Rain,Light Rain Showers,90,2012-11-30 23:00:00
6:00 PM,77,73,85,30.01,12,ENE,3.5,,,Rain,Light Rain Showers,60,2012-12-01 00:00:00
6:00 PM,77.0,73.4,89,30.01,6.2,ENE,3.5,-,N/A,,Mostly Cloudy,60,2012-12-01 00:00:00
9:00 PM,75,74,95,30.07,12,Calm,Calm,,,Rain,Light Rain Showers,,2012-12-01 03:00:00